Flag for Austria Weather past 2 weeks in Vöcklabruck, Upper Austria, Austria

Now
92 °F

Passing clouds.


Feels Like: 89 °F
Forecast: 62 / 91 °F
Wind: 1 mph from South

Location: Kremsmuenster

Current Time: Jul 4, 2015 at 6:22:57 PM

Latest Report: Jul 4, 2015 at 5:00 PM


Visibility: 6 mi

Pressure: 30.09 "Hg

Humidity: 24%

Dew point: 50 °F

Location of VöcklabruckLocation

Historic Weather in Vöcklabruck — Graph

°F

Vöcklabruck temperature yesterday

Maximum temperature yesterday: 89 °F (at 5:00 PM)
Minimum temperature yesterday: 62 °F (at 6:00 AM)
Average temperature yesterday: 76 °F

Past Weeks' High & Low Weather Summary

 TemperatureHumidityPressure
High92 °F (Jul 4, 5:00 PM)94% (Jun 22, 10:00 PM)30.28 "Hg (Jun 22, 10:00 PM)
Low49 °F (Jun 25, 6:00 AM)24% (Jul 4, 5:00 PM)29.72 "Hg (Jun 23, 2:00 AM)
Average65 °F68%30.11 "Hg
* Reported Jun 19 5:00 PM — Jul 4 5:00 PM, Vöcklabruck, Weather by CustomWeather, © 2015

Note: Actual official high and low records may vary slightly from our data, if they occured in-between our weather recording intervals... More about our weather records

Advertising

Vöcklabruck weather history for previous 24 hours

 ConditionsComfort  
Time TempWeatherWind HumidityBarometerVisibility
5:00 PM
Sat, Jul 4
92 °FPassing clouds.1 mph24%30.09 "Hg6 mi
4:00 PM91 °FHot.2 mph27%30.11 "HgN/A
3:00 PM89 °FHot.3 mph27%30.11 "HgN/A
2:00 PM88 °FHot.3 mph34%30.12 "HgN/A
1:00 PM86 °FWarm.3 mph46%30.14 "HgN/A
12:00 PM83 °FWarm.2 mph56%30.16 "HgN/A
11:00 AM80 °FPassing clouds.1 mph61%30.17 "Hg4 mi
10:00 AM76 °FMild.2 mph63%30.19 "HgN/A
9:00 AM71 °FMild.1 mph67%30.22 "HgN/A
8:00 AM67 °FPassing clouds.No wind72%30.22 "Hg9 mi
7:00 AM63 °FPassing clouds.No wind82%30.22 "Hg9 mi
6:00 AM64 °FMild.2 mph77%30.23 "HgN/A
5:00 AM64 °FMild.3 mph78%30.24 "HgN/A
4:00 AM66 °FMild.3 mph70%30.24 "HgN/A
3:00 AM66 °FMild.2 mph76%30.24 "HgN/A
2:00 AM67 °FMild.1 mph79%30.24 "HgN/A
1:00 AM70 °FMild.2 mph70%30.24 "HgN/A
12:00 AM70 °FMild.1 mph76%30.24 "HgN/A
10:00 PM
Fri, Jul 3
76 °FMild.3 mph60%30.23 "HgN/A
9:00 PM79 °FWarm.3 mph55%30.20 "HgN/A
8:00 PM83 °FOvercast.3 mph51%30.19 "Hg37 mi
7:00 PM85 °FWarm.3 mph43%30.18 "HgN/A
6:00 PM87 °FPleasantly warm.3 mph40%30.18 "HgN/A
Weather by CustomWeather, © 2015

See weather overviewHow to use our weather pages